OBJECT C, 67748

Orbit data source: Space-Track

You're viewing an Uncataloged Satellite

Recently launched and/or uncataloged satellites may have evolving metadata. Metadata may include but not limited to: Owner, Maufacturer, Bus, Motor, and Mission.

OBJECT C, 67748 is a Chinese satellite in SSO that was launched on Thu, 12 Feb 2026 UTC via a JIELONG-3 launch vehicle from the South China Sea Launch Area (SCSLA). Unknown objects in Earth's orbit typically refer to objects detected orbiting the Earth but have not yet been identified or cataloged. These objects could be anything from previously untracked satellites, spent rocket stages, debris from satellite collisions, or even natural meteoroids temporarily captured by Earth's gravity.

Loading next visibility...
Identifier
67748, 2026-027C
Orbit
SSO
Country
Flag of CNCN / PRC
Related business
None
Manufacturer
Unknown
Mission
Operational spacecraft
Bus & Motor
Unknown
Mass
Unknown
Launch date (UTC)
2026-02-12 (1 month ago)
Launch vehicle
JIELONG-3
Launch site
South China Sea Launch Area (SCSLA)
Object type
Unknown
Shape & HBR
Unknown
Radar Cross Section
RCS unknown

Expand to show TLE details & history
Last TLE update: 9 hours ago

TLE from 9 hours ago
0 OBJECT C
1 67748U 26027C   26071.99659671  .00006351  00000-0  31644-3 0  9993
2 67748  97.4909 200.9850 0010908 187.2975 172.8102 15.17863936  4366
Epoch: 2026-03-12T23:55Z
TLE epoch observation values (Epoch: 2026-03-12T23:55:05.955Z)
Latitude
-0.00001°
Longitude
31.57172°
Altitude
522.841 km
Speed
7.598 km/s
True Right ascension
13h 23m 56s
True Declination
0° 00' 00"
Sunlit
Object was in full shadow at epoch
Visualization orbit readout
Latitude
Unknown
Longitude
Unknown
Altitude
Unknown
Speed
Unknown
Apparent Right ascension
Unknown
Apparent Declination
Unknown
Sunlit
N/A
Visualization observer readout
Local Sidereal Time
12:59:36
Azimuth
Unknown
Elevation
Unknown
Doppler factor
Unknown
Orbital elements
Apogee altitude
516.783 km
Perigee altitude
501.757 km
Semi-major axis
6,887.407 km
Eccentricity
0.00109
Inclination
97.4909°
RAAN
200.985°
Arg. of periapsis
187.2975°
True anomaly
172.82582°
Mean anomaly
172.8102°
Eccentric anomaly
172.81801°
Mean motion
3.79717 °/min
Orbital period
94.81 mins
BSTAR
0.00031644
Loading maneuver chart data...
Computing Atmospheric mass density...
Loading historical data...
Loading historical data...
Loading historical data...
Loading historical data...
Loading historical data...
Loading historical data...
Loading historical data...

Documentation

Showing up to 5 results
|